This demonstration page uses our WeatherBlox Daily Observations layout. Learn more.

Left ArrowRight Arrow

Hourly Observations for September 25, 2019

Temp ( °F °C ) Dew Point ( °F °C ) Humidity (%) Winds ( mph kmh ) Pressure ( in mb ) Visibility ( mi km ) Precip ( " mm )
12:51 am 00:51 Clear 61 16.1 60 15.6 97 97 E 7 11 29.90 1012 10 16 0.00 0.00
1:51 am 01:51 Mostly Clear 60 15.6 59 15 96 96 E 3 6 29.89 1012 10 16 0.00 0.00
2:51 am 02:51 Clear with Mist and Fog 58 14.4 58 14.4 100 100 NNW 5 7 29.88 1012 6 10 0.00 0.00
2:53 am 02:53 Mostly Clear with Mist and Fog 58 14.4 58 14.4 100 100 NNW 3 6 29.90 1013 3 4 0.00 0.00
2:57 am 02:57 Mostly Cloudy with Mist and Fog 58 14.4 58 14.4 100 100 Calm 29.90 1013 1 2 0.00 0.00
3:05 am 03:05 Mostly Cloudy with Mist and Fog 58 14.4 58 14.4 100 100 Calm 29.90 1013 1 1 0.00 0.00
3:10 am 03:10 Partly Cloudy with Mist and Fog 58 14.4 58 14.4 100 100 Calm 29.91 1013 1 2 0.00 0.00
3:14 am 03:14 Partly Cloudy with Mist and Fog 57 14 57 14 100 100 Calm 29.92 1013 3 5 0.00 0.00
3:51 am 03:51 Mostly Clear with Mist and Fog 58 14.4 57 13.9 97 97 SE 3 6 29.88 1012 4 6 0.00 0.00
4:51 am 04:51 Mostly Cloudy 61 16.1 60 15.6 97 97 SSE 7 11 29.88 1012 10 16 0.00 0.00
5:51 am 05:51 Mostly Cloudy 62 16.7 60 15.6 93 93 SE 8 13 29.89 1012 10 16 0.00 0.00
6:51 am 06:51 Cloudy 63 17.2 60 15.6 90 90 E 3 6 29.91 1013 10 16 0.00 0.00
7:51 am 07:51 Sunny 65 18.3 60 15.6 84 84 SSE 7 11 29.91 1013 10 16 0.00 0.00
8:51 am 08:51 Sunny 68 20 59 15 73 73 SE 6 9 29.92 1013 10 16 0.00 0.00
9:51 am 09:51 Sunny 71 21.7 60 15.6 68 68 S 7 11 29.92 1013 10 16 0.00 0.00
10:51 am 10:51 Sunny 74 23.3 60 15.6 62 62 SSE 7 11 29.91 1013 10 16 0.00 0.00
11:51 am 11:51 Sunny 75 23.9 58 14.4 55 55 Calm 29.89 1012 10 16 0.00 0.00
12:51 pm 12:51 Sunny 79 26.1 57 13.9 47 47 SSE 5 7 29.86 1011 10 16 0.00 0.00
1:51 pm 13:51 Sunny 80 26.7 58 14.4 47 47 VRB 3 6 29.85 1011 10 16 0.00 0.00
2:51 pm 14:51 Sunny 81 27.2 60 15.6 49 49 E 5 7 29.83 1010 10 16 0.00 0.00
3:51 pm 15:51 Sunny 81 27.2 60 15.6 49 49 E 6 9 29.81 1009 10 16 0.00 0.00
4:51 pm 16:51 Sunny 80 26.7 60 15.6 51 51 SE 5 7 29.80 1009 10 16 0.00 0.00
5:51 pm 17:51 Sunny 78 25.6 61 16.1 56 56 Calm 29.80 1009 10 16 0.00 0.00
6:51 pm 18:51 Clear 77 25 62 16.7 60 60 ESE 9 15 29.83 1010 10 16 0.00 0.00
7:51 pm 19:51 Clear 76 24.4 56 13.3 50 50 ESE 9 15 29.83 1010 10 16 0.00 0.00
8:51 pm 20:51 Clear 75 23.9 55 12.8 50 50 ESE 9 15 29.86 1011 10 16 0.00 0.00
9:51 pm 21:51 Clear 74 23.3 53 11.7 48 48 E 9 15 29.86 1011 10 16 0.00 0.00
10:51 pm 22:51 Clear 72 22.2 53 11.7 52 52 ESE 8 13 29.87 1012 10 16 0.00 0.00
11:51 pm 23:51 Clear 71 21.7 53 11.7 53 53 E 7 11 29.87 1012 10 16 0.00 0.00

Powered by AerisWeather